User: anonymous   Login
Location: Newark
(54.0500°N, 12.8333°E)
Time: 20:00:48
(UTC+00:00)
Language:

Transit 2A Rocket - Orbit

View from above orbital plane
View from above orbital plane
View from above satellite
View from above satellite

Ground track
Ground track

The orbit data is extracted from the following two-line orbital elements,

1    47U 60007C   20021.21416772 -.00000038 +00000-0 +16616-4 0  9995
2    47 066.6643 191.3854 0222104 050.4738 311.5765 14.42069170113303
Epoch (UTC): 21 January 2020 05:08:24
Eccentricity: 0.0222104
inclination: 66.6643°
perigee height: 593 km
apogee height: 910 km
right ascension of ascending node: 191.3854°
argument of perigee: 50.4738°
revolutions per day: 14.42069170
mean anomaly at epoch: 311.5765°
orbit number at epoch: 11330

The dashed part of the orbit path shows where the satellite is in the earth's shadow,  

DLR